Tracking 30995 objects as of 5-Jul-2025
HD Live streaming from Space Station
objects crossing your sky now

STARLINK-5244

Track STARLINK-5244 now!
10-day predictions
STARLINK-5244 is classified as:


NORAD ID: 54199
Int'l Code: 2022-141AU
Perigee: 546.0 km
Apogee: 547.8 km
Inclination: 53.2 °
Period: 95.4 minutes
Semi major axis: 6917 km
RCS: Unknown
Launch date: October 28, 2022
Source: United States (US)
Launch site: AIR FORCE WESTERN TEST RANGE (AFWTR)
Your satellite tracking list
STARLINK-3938
Track 1 satellite(s)




NASA's NSSDC Master Catalog

Two Line Element Set (TLE):
1 54199U 22141AU  25186.51271296  .00000149  00000-0  27469-4 0  9999
2 54199  53.2181  23.6639 0001290  93.9624 266.1515 15.08834205148919
Source of the keplerian elements: AFSPC